Location: Beau Repaire
(50.6144°N, 4.0551°E)
Time: 11:13:51
(UTC+00:00)

Cosmos-2242 - Pass Details

Date: 15 May 2026
Orbit: 565 x 588 km, 82.5° (Epoch: 5 June)

Event Time Altitude Azimuth Distance (km) Brightness Sun altitude
Exits shadow 21:37:46 28° 137° (SE) 1,093 3.8 -15.3°
Maximum altitude 21:39:16 38° 92° (E) 879 3.6 -15.4°
Drops below altitude 10° 21:43:06 10° 24° (NNE) 1,876 6.0 -15.7°
Sets 21:45:23 0° 17° (NNE) 2,777 7.1 -15.9°
